Hourly Weather Roundup
Issued by NWS Central Illinois

Home | Current Version | Previous Version | Text Only | Print | Product List | Glossary On
Versions: 1 2 3 4 5 6 7 8 9 10 11 12 13 14 15 16 17 18 19 20 21 22 23 24 25 26 27 28 29 30 31 32 33 34 35 36 37 38 39 40 41 42 43 44 45 46 47 48 49 50
000
NZUS43 KILX 271110
HWRILX

AREA WEATHER ROUNDUP
NATIONAL WEATHER SERVICE, LINCOLN IL
600 AM CDT WED AUG 27 2014


CITY           SKY/WX    TMP DP  RH WIND       PRES   REMARKS
BLOOMINGTON    PTCLDY    68  67  96 NE7       30.12S
CHAMPAIGN      PTCLDY    68  66  93 CALM      30.10R
DECATUR        PTCLDY    68  65  90 S5        30.09F
FLORA          PTCLDY    71  68  93 CALM      30.10R
GALESBURG      CLOUDY    68  67  95 N5        30.12R
JACKSONVILLE   PTCLDY    72  70  94 SE3       30.09S
LACON          CLOUDY    70  65  85 CALM      30.11R
LAWRENCEVILLE  PTCLDY    71  70  96 CALM      30.09R
LITCHFIELD     PTCLDY    69  66  89 NE7       30.10R
$$


CITY           SKY/WX    TMP DP  RH WIND       PRES   REMARKS
LINCOLN        PTCLDY    70  69  95 CALM      30.07R FOG
MACOMB         PTCLDY    68  67  95 NE6       30.12S
MATTOON        PTCLDY    69  66  90 CALM      30.09F
MT CARMEL AP   CLEAR     73  72  94 CALM      30.09R
OLNEY-NOBLE AP CLEAR     70  70 100 CALM      30.09S FOG
PARIS          CLEAR     67  67 100 CALM      30.11R FOG
PEORIA         MOCLDY    73  65  75 NE8       30.10S
PONTIAC        CLOUDY    72  70  94 NE6       30.11F
RANTOUL        MOCLDY    71  67  88 NE3       30.11S
ROBINSON       PTCLDY    69  69  98 CALM      30.10R FOG
SPRINGFIELD    PTCLDY    70  66  87 SE3       30.08F
TAYLORVILLE    PTCLDY    68  64  88 E3        30.10S
$$

...REGIONAL REPORTS...


CITY           SKY/WX    TMP DP  RH WIND       PRES   REMARKS
CHICAGO O`HARE MOCLDY    68  62  81 N5        30.12F
KANKAKEE       CLOUDY    69  65  89 N5        30.12S
MOLINE         PTCLDY    69  63  81 NE7       30.12S
MOUNT VERNON   CLEAR     72  68  88 NE5       30.09S
PITTSFIELD     PTCLDY    73  69  89 CALM      30.10R
QUINCY         CLEAR     70  68  93 NE7       30.08S
ROCKFORD       MOCLDY    65  57  75 N7        30.17R
$$


CITY           SKY/WX    TMP DP  RH WIND       PRES   REMARKS
BURLINGTON     MOCLDY    70  67  90 NE9       30.10S
CEDAR RAPIDS   LGT RAIN  66  62  87 NE9       30.13S
DES MOINES     MOCLDY    69  61  75 E8        30.12R
KIRKSVILLE     CLEAR     69  67  93 NE7       30.10F
OTTUMWA        PTCLDY    65  63  93 E7        30.11S
ST LOUIS       PTCLDY    76  69  79 CALM      30.07S
$$


CITY           SKY/WX    TMP DP  RH WIND       PRES   REMARKS
TERRE HAUTE    PTCLDY    68  66  93 CALM      30.09R FOG
EVANSVILLE     CLEAR     74  71  91 N5        30.08R
INDIANAPOLIS   MOCLDY    72  69  90 S5        30.08S
LAFAYETTE      PTCLDY    66  66 100 CALM      30.10R FOG
MADISON        PTCLDY    60  57  89 CALM      30.17R
MILWAUKEE      MOCLDY    64  56  75 N3        30.14S
$$





USA.gov is the U.S. government's official web portal to all federal, state and local government web resources and services.